KC0MWM-2 Weather Reports


time (UTC)temp
C
wind
direction
speed
KPH
gust
KPH
rain 1hr
cm
rain 24hr
cm
rain mn
cm
humidity
%
barometer
mb
20260504150616 21 270 3.2 4.8 0.00 0.00 0.00 46 1005.6
20260504140616 17 293 4.8 8.0 0.00 0.00 0.00 53 1006.0
20260504130615 12 315 6.4 9.7 0.00 0.00 0.00 63 1005.6
20260504110615 10 0.0 1.6 0.00 0.00 0.00 67 1005.0
20260504081617 15 180 3.2 6.4 0.00 0.00 0.00 51 1006.2
20260504080617 15 180 1.6 3.2 0.00 0.00 0.00 51 1006.3
20260504050616 15 0.0 1.6 0.00 0.00 0.00 52 1008.6
20260504045615 15 0.0 0.0 0.00 0.00 0.00 52 1008.7
20260504044616 15 0.0 0.0 0.00 0.00 0.00 52 1008.6
20260504043615 16 0.0 1.6 0.00 0.00 0.00 50 1008.7
20260504042615 16 0.0 0.0 0.00 0.00 0.00 49 1008.9
20260504041636 16 0.0 0.0 0.00 0.00 0.00 48 1008.8
20260504040616 16 0.0 1.6 0.00 0.00 0.00 49 1008.9
20260504035615 16 0.0 0.0 0.00 0.00 0.00 50 1008.9
20260504034615 16 0.0 3.2 0.00 0.00 0.00 50 1008.9
20260504033616 16 0.0 0.0 0.00 0.00 0.00 51 1008.8
20260504032615 16 0.0 0.0 0.00 0.00 0.00 51 1008.9
20260504031615 17 0.0 0.0 0.00 0.00 0.00 50 1009.1
20260504030615 16 0.0 1.6 0.00 0.00 0.00 52 1009.0
20260504025635 16 0.0 0.0 0.00 0.00 0.00 50 1009.0
20260504024615 17 0.0 0.0 0.00 0.00 0.00 49 1009.0
20260504023615 17 0.0 0.0 0.00 0.00 0.00 48 1009.0
20260504022615 18 0.0 1.6 0.00 0.00 0.00 48 1009.0
20260504021617 18 0.0 0.0 0.00 0.00 0.00 45 1008.9
20260504020617 18 0.0 0.0 0.00 0.00 0.00 44 1008.9
20260504015617 20 0.0 0.0 0.00 0.00 0.00 43 1009.2
20260504014617 20 0.0 0.0 0.00 0.00 0.00 41 1009.3
20260504013617 21 0.0 0.0 0.00 0.00 0.00 39 1009.2
20260504012758 21 0.0 0.0 0.00 0.00 0.00 38 1009.4
20260504011617 22 0.0 1.6 0.00 0.00 0.00 36 1009.4
20260504010617 22 0.0 1.6 0.00 0.00 0.00 36 1009.3
20260504005617 22 45 1.6 4.8 0.00 0.00 0.00 35 1009.5
20260504004657 22 113 1.6 4.8 0.00 0.00 0.00 34 1009.6
20260504003637 23 0.0 3.2 0.00 0.00 0.00 35 1009.7
20260504002617 23 0.0 1.6 0.00 0.00 0.00 34 1009.9
20260504001617 23 0.0 0.0 0.00 0.00 0.00 34 1010.1
20260504000637 23 113 1.6 6.4 0.00 0.00 0.00 33 1009.9
20260503235617 23 90 3.2 8.0 0.00 0.00 0.00 34 1010.2
20260503234617 23 0.0 1.6 0.00 0.00 0.00 33 1010.3
20260503233637 23 338 1.6 4.8 0.00 0.00 0.00 34 1010.4
20260503232617 24 113 3.2 8.0 0.00 0.00 0.00 33 1010.5
20260503231617 24 338 1.6 4.8 0.00 0.00 0.00 33 1010.5
20260503230617 23 338 1.6 4.8 0.00 0.00 0.00 34 1010.6
20260503225617 23 68 4.8 6.4 0.00 0.00 0.00 33 1010.7
20260503224637 23 0.0 1.6 0.00 0.00 0.00 34 1010.7
20260503223617 24 338 3.2 8.0 0.00 0.00 0.00 33 1010.9
20260503222617 23 315 3.2 8.0 0.00 0.00 0.00 34 1011.0
20260503221616 24 338 1.6 3.2 0.00 0.00 0.00 34 1011.1
20260503220617 24 113 1.6 4.8 0.00 0.00 0.00 35 1011.2
20260503215637 23 293 1.6 3.2 0.00 0.00 0.00 34 1011.3
20260503214617 23 45 3.2 6.4 0.00 0.00 0.00 34 1011.4
20260503213616 23 0.0 1.6 0.00 0.00 0.00 34 1011.5
20260503212616 24 135 1.6 4.8 0.00 0.00 0.00 33 1011.7
20260503211616 23 0.0 3.2 0.00 0.00 0.00 34 1011.9
20260503210617 24 315 3.2 6.4 0.00 0.00 0.00 33 1012.2
20260503205616 23 158 8.0 9.7 0.00 0.00 0.00 33 1012.3
20260503204617 23 315 3.2 4.8 0.00 0.00 0.00 33 1012.4
20260503203616 23 315 6.4 9.7 0.00 0.00 0.00 34 1012.6
20260503202616 23 338 1.6 4.8 0.00 0.00 0.00 34 1012.7
20260503201617 23 135 3.2 3.2 0.00 0.00 0.00 32 1012.8
20260503200616 23 315 1.6 3.2 0.00 0.00 0.00 35 1013.0
20260503195617 23 0 4.8 11.3 0.00 0.00 0.00 33 1013.1
20260503194617 24 338 4.8 8.0 0.00 0.00 0.00 35 1013.1
20260503193636 24 338 6.4 12.9 0.00 0.00 0.00 33 1013.2
20260503192616 23 90 9.7 17.7 0.00 0.00 0.00 35 1013.1
20260503191637 23 45 4.8 8.0 0.00 0.00 0.00 34 1013.5
20260503190616 23 0.0 1.6 0.00 0.00 0.00 34 1013.6
20260503185616 23 45 4.8 8.0 0.00 0.00 0.00 34 1013.7
20260503184616 23 113 3.2 8.0 0.00 0.00 0.00 34 1013.7
20260503183616 23 315 3.2 6.4 0.00 0.00 0.00 34 1013.8
20260503182616 23 315 3.2 9.7 0.00 0.00 0.00 34 1013.9
20260503181617 23 45 1.6 8.0 0.00 0.00 0.00 36 1013.8
20260503180616 23 135 6.4 20.9 0.00 0.00 0.00 36 1014.1
20260503175616 22 315 3.2 6.4 0.00 0.00 0.00 37 1014.2
20260503174616 22 315 4.8 9.7 0.00 0.00 0.00 35 1014.4
20260503173656 22 0 6.4 9.7 0.00 0.00 0.00 35 1014.6
20260503172636 22 90 1.6 4.8 0.00 0.00 0.00 36 1014.9
20260503171616 22 315 4.8 12.9 0.00 0.00 0.00 36 1014.8
20260503170616 22 338 8.0 14.5 0.00 0.00 0.00 35 1015.1